Weather History for Beckley, WV

Change the Weather History Date:

Thursday, October 3, 2013

  Actual Average Record
Temperature  
Mean Temperature 66 °F 57 °F  
Max Temperature 78 °F 67 °F 85 °F (1941)
Min Temperature 54 °F 47 °F 21 °F (1974)
Degree Days  
Heating Degree Days 0 9  
Month to date heating degree days 3 25  
Since 1 July heating degree days 112 159  
Cooling Degree Days 1 0  
Month to date cooling degree days 1 2  
Year to date cooling degree days 601 552  
Growing Degree Days 16 (Base 50)    
Moisture  
Dew Point 56 °F    
Average Humidity 72    
Maximum Humidity 93    
Minimum Humidity 50    
Precipitation  
Precipitation 0.00 in 0.08 in 0.61 in (1961)
Month to date precipitation 0.00 0.24  
Year to date precipitation 31.69 32.91  
Snow  
Snow 0.00 in - - ()
Month to date snowfall 0.0  
Since 1 September snowfall 0.0  
Snow Depth 0.00 in    
Sea Level Pressure  
Sea Level Pressure 30.11 in    
Wind  
Wind Speed 2 mph (SE)    
Max Wind Speed 7 mph    
Max Gust Speed 8 mph    
Visibility 8 miles    
Events      
T = Trace of Precipitation, MM = Missing Value Source: NWS Daily Summary

Daily Weather History Graph

Daily Weather History Graph

Search for Another Location

Airport:

Trip Planner

Search our weather history database for the weather conditions in past years. The results will help you decide how hot, cold, wet, or windy it might be!

Date:

Astronomy

Oct. 03, 2013 Rise Set
Actual Time 7:22 AM EDT 7:04 PM EDT
Civil Twilight 6:55 AM EDT 7:30 PM EDT
Nautical Twilight 6:25 AM EDT 8:00 PM EDT
Astronomical Twilight 5:54 AM EDT 8:31 PM EDT
Moon 5:55 AM EDT (10/3) 6:11 PM EDT (10/3)
Length of Visible Light 12h 34m
Length of Day
11h 42m
Waning Crescent, 2% of the Moon is Illuminated
Oct 3
Waning Crescent
Oct 4
New
Oct 11
First Quarter
Oct 18
Full
Oct 26
Last Quarter

Hourly Weather History & Observations

Time (EDT) Temp. Dew Point Humidity Pressure Visibility Wind Dir Wind Speed Gust Speed Precip Events Conditions
12:51 AM 57.0 °F 55.0 °F 93% 30.12 in 7.0 mi Calm Calm - N/A   Clear
1:51 AM 55.9 °F 54.0 °F 93% 30.12 in 6.0 mi Calm Calm - N/A   Clear
2:51 AM 55.9 °F 54.0 °F 93% 30.11 in 5.0 mi Calm Calm - N/A   Clear
3:51 AM 57.0 °F 54.0 °F 89% 30.11 in 7.0 mi Calm Calm - N/A   Clear
4:51 AM 55.9 °F 54.0 °F 93% 30.10 in 6.0 mi East 3.5 mph - N/A   Clear
5:51 AM 57.0 °F 54.0 °F 89% 30.11 in 5.0 mi Calm Calm - N/A   Clear
6:51 AM 54.0 °F 52.0 °F 93% 30.14 in 4.0 mi Calm Calm - N/A   Clear
7:51 AM 57.0 °F 54.0 °F 89% 30.15 in 6.0 mi ESE 3.5 mph - N/A   Clear
8:51 AM 62.1 °F 57.0 °F 84% 30.16 in 10.0 mi SSE 6.9 mph - N/A   Clear
9:51 AM 64.9 °F 59.0 °F 81% 30.15 in 10.0 mi Calm Calm - N/A   Clear
10:51 AM 70.0 °F 59.0 °F 68% 30.14 in 10.0 mi South 3.5 mph - N/A   Clear
11:51 AM 73.0 °F 57.0 °F 57% 30.12 in 10.0 mi NE 4.6 mph - N/A   Clear
12:51 PM 73.0 °F 57.9 °F 59% 30.12 in 10.0 mi North 3.5 mph - N/A   Clear
1:51 PM 73.9 °F 55.0 °F 52% 30.10 in 10.0 mi Calm Calm - N/A   Scattered Clouds
2:51 PM 75.9 °F 55.9 °F 50% 30.08 in 10.0 mi ENE 4.6 mph - N/A   Clear
3:51 PM 75.9 °F 55.9 °F 50% 30.07 in 10.0 mi ESE 3.5 mph - N/A   Clear
4:51 PM 75.0 °F 57.0 °F 53% 30.07 in 10.0 mi Calm Calm - N/A   Scattered Clouds
5:51 PM 73.0 °F 59.0 °F 61% 30.08 in 10.0 mi SE 3.5 mph - N/A   Unknown
6:51 PM 71.1 °F 59.0 °F 66% 30.09 in 10.0 mi SSE 3.5 mph - N/A   Clear
7:51 PM 66.9 °F 59.0 °F 76% 30.10 in 10.0 mi SSE 4.6 mph - N/A   Partly Cloudy
8:51 PM 66.0 °F 57.9 °F 75% 30.10 in 10.0 mi SSE 3.5 mph - N/A   Clear
9:51 PM 62.1 °F 57.0 °F 84% 30.10 in 10.0 mi Calm Calm - N/A   Clear
10:51 PM 61.0 °F 57.0 °F 87% 30.10 in 10.0 mi SSE 5.8 mph - N/A   Clear
11:51 PM 62.1 °F 57.0 °F 84% 30.10 in 10.0 mi Calm Calm - N/A   Clear